• In Uzbekistan
  • List of Countries
  • For 7 days
  • Water Temperature
  • Satellite Maps
  • Weather Map
  • Weather Widgets
  • user-avatar
    Login

    Hourly Weather Changsha

    Today, 24 January, Thursday

    Time Temperature Precipitation Wind Pressure Humidity
    00:00 +10°C° 0 mm 1 mps 763 mmHg 58%
    01:00 +9°C° 0 mm 1 mps 763 mmHg 60%
    02:00 +9°C° 0 mm 1 mps 763 mmHg 62%
    03:00 +8°C° 0 mm 1 mps 763 mmHg 63%
    04:00 +8°C° 0 mm 1 mps 763 mmHg 65%
    05:00 +8°C° 0 mm 1 mps 763 mmHg 66%
    06:00 +8°C° 0 mm 1 mps 763 mmHg 67%
    07:00 +8°C° 0 mm 1 mps 763 mmHg 67%
    08:00 +7°C° 0 mm 1 mps 763 mmHg 67%
    09:00 +9°C° 0 mm 1 mps 763 mmHg 60%
    10:00 +12°C° 0 mm 2 mps 763 mmHg 52%
    11:00 +14°C° 0 mm 2 mps 764 mmHg 44%
    12:00 +15°C° 0 mm 2 mps 763 mmHg 41%
    13:00 +16°C° 0 mm 2 mps 762 mmHg 38%
    14:00 +18°C° 0 mm 2 mps 761 mmHg 34%
    15:00 +18°C° 0 mm 2 mps 761 mmHg 36%
    16:00 +18°C° 0 mm 2 mps 761 mmHg 39%
    17:00 +18°C° 0 mm 2 mps 760 mmHg 41%
    18:00 +16°C° 0 mm 1 mps 761 mmHg 45%
    19:00 +15°C° 0 mm 1 mps 761 mmHg 50%
    20:00 +14°C° 0 mm 1 mps 761 mmHg 54%
    21:00 +13°C° 0 mm 1 mps 761 mmHg 55%
    22:00 +13°C° 0 mm 1 mps 762 mmHg 57%
    23:00 +12°C° 0 mm 1 mps 762 mmHg 59%

    Tomorrow, 25 January, Friday

    Time Temperature Precipitation Wind Pressure Humidity
    00:00 +12°C° 0 mm 1 mps 762 mmHg 59%
    01:00 +12°C° 0 mm 1 mps 762 mmHg 59%
    02:00 +12°C° 0 mm 1 mps 763 mmHg 60%
    03:00 +12°C° 0 mm 1 mps 763 mmHg 60%
    04:00 +12°C° 0 mm 1 mps 763 mmHg 59%
    05:00 +12°C° 0 mm 1 mps 762 mmHg 59%
    06:00 +12°C° 0 mm 1 mps 763 mmHg 59%
    07:00 +12°C° 0 mm 1 mps 763 mmHg 60%
    08:00 +12°C° 0 mm 1 mps 764 mmHg 60%
    09:00 +13°C° 0 mm 1 mps 765 mmHg 58%
    10:00 +14°C° 0 mm 2 mps 765 mmHg 55%
    11:00 +15°C° 0 mm 2 mps 766 mmHg 53%
    12:00 +16°C° 0 mm 3 mps 766 mmHg 50%
    13:00 +17°C° 0 mm 4 mps 765 mmHg 46%
    14:00 +19°C° 0 mm 4 mps 765 mmHg 42%
    15:00 +18°C° 0 mm 4 mps 765 mmHg 43%
    16:00 +18°C° 0 mm 4 mps 765 mmHg 44%
    17:00 +18°C° 0 mm 4 mps 766 mmHg 46%
    18:00 +15°C° 0 mm 4 mps 766 mmHg 48%
    19:00 +14°C° 0 mm 4 mps 767 mmHg 51%
    20:00 +13°C° 0 mm 4 mps 768 mmHg 53%
    21:00 +12°C° 0 mm 4 mps 768 mmHg 54%
    22:00 +12°C° 0 mm 4 mps 769 mmHg 55%
    23:00 +11°C° 0 mm 4 mps 769 mmHg 56%

    Day after tomorrow, 26 January, Saturday

    Time Temperature Precipitation Wind Pressure Humidity
    00:00 +10°C° 0 mm 4 mps 769 mmHg 58%
    01:00 +10°C° 0 mm 4 mps 769 mmHg 59%
    02:00 +8°C° 0 mm 4 mps 769 mmHg 60%
    03:00 +8°C° 0 mm 4 mps 769 mmHg 62%
    04:00 +7°C° 0 mm 4 mps 769 mmHg 64%
    05:00 +6°C° 0 mm 4 mps 769 mmHg 65%
    06:00 +7°C° 0 mm 3 mps 770 mmHg 67%
    07:00 +7°C° 0 mm 3 mps 771 mmHg 69%
    08:00 +7°C° 0 mm 3 mps 771 mmHg 71%
    09:00 +8°C° 0 mm 3 mps 772 mmHg 68%
    10:00 +8°C° 0 mm 4 mps 772 mmHg 64%
    11:00 +11°C° 0 mm 4 mps 772 mmHg 60%
    12:00 +12°C° 0 mm 3 mps 771 mmHg 57%
    13:00 +12°C° 0 mm 3 mps 771 mmHg 55%
    14:00 +13°C° 0 mm 3 mps 770 mmHg 52%
    15:00 +13°C° 0 mm 3 mps 769 mmHg 52%
    16:00 +13°C° 0 mm 3 mps 769 mmHg 53%
    17:00 +13°C° 0 mm 3 mps 768 mmHg 54%
    18:00 +12°C° 0 mm 3 mps 768 mmHg 58%
    19:00 +11°C° 0 mm 3 mps 769 mmHg 62%
    20:00 +10°C° 0 mm 3 mps 769 mmHg 65%
    21:00 +10°C° 0 mm 2 mps 769 mmHg 67%
    22:00 +9°C° 0 mm 2 mps 769 mmHg 69%
    23:00 +10°C° 0 mm 1 mps 769 mmHg 71%

    27 January, Sunday

    Time Temperature Precipitation Wind Pressure Humidity
    00:00 +9°C° 0 mm 1 mps 769 mmHg 72%
    01:00 +9°C° 0 mm 1 mps 768 mmHg 72%
    02:00 +8°C° 0 mm 1 mps 768 mmHg 73%
    03:00 +8°C° 0 mm 1 mps 768 mmHg 72%
    04:00 +8°C° 0 mm 1 mps 767 mmHg 72%
    05:00 +7°C° 0 mm 0 mps 767 mmHg 71%
    06:00 +6°C° 0 mm 0 mps 767 mmHg 70%
    07:00 +6°C° 0 mm 0 mps 767 mmHg 68%
    08:00 +6°C° 0 mm 0 mps 767 mmHg 67%
    09:00 +9°C° 0 mm 1 mps 767 mmHg 59%
    10:00 +11°C° 0 mm 1 mps 767 mmHg 51%
    11:00 +13°C° 0 mm 1 mps 767 mmHg 43%
    12:00 +14°C° 0 mm 1 mps 766 mmHg 42%
    13:00 +15°C° 0 mm 1 mps 765 mmHg 40%
    14:00 +16°C° 0 mm 1 mps 764 mmHg 39%
    15:00 +18°C° 0 mm 1 mps 764 mmHg 40%
    16:00 +18°C° 0 mm 1 mps 763 mmHg 41%
    17:00 +18°C° 0 mm 1 mps 763 mmHg 42%
    18:00 +16°C° 0 mm 1 mps 763 mmHg 46%
    19:00 +15°C° 0 mm 1 mps 764 mmHg 50%
    20:00 +14°C° 0 mm 1 mps 764 mmHg 53%
    21:00 +14°C° 0 mm 1 mps 764 mmHg 55%
    22:00 +14°C° 0 mm 1 mps 765 mmHg 56%
    23:00 +14°C° 0 mm 1 mps 765 mmHg 58%

    28 January, Monday

    Time Temperature Precipitation Wind Pressure Humidity
    00:00 +13°C° 0 mm 1 mps 765 mmHg 60%
    01:00 +13°C° 0 mm 1 mps 765 mmHg 61%
    02:00 +13°C° 0 mm 1 mps 764 mmHg 63%
    03:00 +13°C° 0 mm 1 mps 764 mmHg 64%
    04:00 +13°C° 0 mm 1 mps 764 mmHg 66%
    05:00 +12°C° 0 mm 1 mps 764 mmHg 67%
    06:00 +12°C° 0 mm 1 mps 764 mmHg 67%
    07:00 +12°C° 0 mm 1 mps 765 mmHg 68%
    08:00 +12°C° 0 mm 2 mps 765 mmHg 68%
    09:00 +13°C° 0 mm 2 mps 765 mmHg 66%
    10:00 +13°C° 0 mm 2 mps 766 mmHg 63%
    11:00 +14°C° 0 mm 2 mps 766 mmHg 60%
    12:00 +14°C° 0 mm 2 mps 765 mmHg 61%
    13:00 +14°C° 0 mm 2 mps 764 mmHg 61%
    14:00 +13°C° 0 mm 3 mps 764 mmHg 62%
    15:00 +13°C° 0 mm 3 mps 763 mmHg 64%
    16:00 +12°C° 0 mm 3 mps 763 mmHg 67%
    17:00 +12°C° 0 mm 3 mps 763 mmHg 69%
    18:00 +11°C° 0 mm 3 mps 763 mmHg 72%
    19:00 +11°C° 0 mm 3 mps 764 mmHg 74%
    20:00 +10°C° 0 mm 3 mps 764 mmHg 77%
    21:00 +10°C° 0 mm 3 mps 764 mmHg 78%
    22:00 +9°C° 0 mm 3 mps 764 mmHg 79%
    23:00 +9°C° 0 mm 3 mps 764 mmHg 80%

    29 January, Tuesday

    Time Temperature Precipitation Wind Pressure Humidity
    00:00 +9°C° 0 mm 3 mps 764 mmHg 81%
    01:00 +9°C° 0 mm 3 mps 764 mmHg 82%
    02:00 +8°C° 0 mm 3 mps 764 mmHg 82%
    03:00 +8°C° 0 mm 3 mps 764 mmHg 83%
    04:00 +8°C° 0 mm 2 mps 764 mmHg 84%
    05:00 +8°C° 0 mm 2 mps 763 mmHg 85%
    06:00 +8°C° 0 mm 2 mps 764 mmHg 85%
    07:00 +8°C° 0 mm 2 mps 764 mmHg 85%
    08:00 +8°C° 0 mm 2 mps 764 mmHg 86%
    09:00 +8°C° 0 mm 2 mps 765 mmHg 85%
    10:00 +9°C° 0 mm 2 mps 765 mmHg 84%
    11:00 +9°C° 0 mm 2 mps 765 mmHg 84%
    12:00 +9°C° 0 mm 2 mps 764 mmHg 83%
    13:00 +10°C° 0 mm 2 mps 763 mmHg 82%
    14:00 +10°C° 0 mm 2 mps 763 mmHg 81%
    15:00 +10°C° 0 mm 3 mps 763 mmHg 81%
    16:00 +10°C° 0 mm 3 mps 763 mmHg 82%
    17:00 +10°C° 0 mm 3 mps 762 mmHg 83%
    18:00 +9°C° 0 mm 3 mps 763 mmHg 84%
    19:00 +9°C° 0 mm 3 mps 763 mmHg 85%
    20:00 +8°C° 0 mm 3 mps 764 mmHg 86%
    21:00 +8°C° 0 mm 3 mps 764 mmHg 87%
    22:00 +8°C° 0 mm 3 mps 764 mmHg 87%
    23:00 +8°C° 0 mm 3 mps 764 mmHg 88%
    Show more